カタログに戻る

COSMOS 2251 DEB

運用中LEO
NORAD 35606·DEBRIS·🇷🇺 Russia

打ち上げ Jun 16, 1993 から Plesetsk Cosmodrome

Loading…

次のパス (今後24時間)

TLE

最新Source: Space-Track

元期: Sep 13, 2026, 12:21 UTC

1 35606U 93036AMZ 26256.51484727  .00000278  00000-0  29162-3 0  9990
2 35606  73.8090 292.7472 0450629  94.8282 270.4411 13.41540353647242

AllMySatでCOSMOS 2251 DEBをリアルタイム追跡

Download on the App Store